STARLINK-32620

Last updated on Thu Nov 21 2024 00:02:06 GMT+0000 (Coordinated Universal Time)

1 61928U 24207S 24325.58335648 -.00823208 21156-3 -24143-2 0 9998 2 61928 43.0022 96.5091 0001778 291.5104 134.9363 15.91779309 2444
UTC large
Height (km)
Speed (km/s)
/
Latitude / Longitude
Inclination (degrees)
Orbital Period (minutes)
Azimuth
Elevation
Range (km)
Doppler Factor

Next 0 passes for location: London (51.5072 / 0.1276)

Sorry there are no passes over London.